Regional Weather Roundup
Issued by NWS Charleston, WV

Home | Current Version | Previous Version | Text Only | Print | Product List | Glossary Off
Versions: 1 2 3 4 5 6 7 8 9 10 11 12 13 14 15 16 17 18 19 20 21 22 23 24 25 26 27 28 29 30 31 32 33 34 35 36 37 38 39 40 41 42 43 44 45 46 47 48 49 50

000
ASUS41 KRLX 112210
RWRRLX
West Virginia Regional Weather Roundup
National Weather Service Charleston WV
500 PM EST THU FEB 11 2016

Note: "fair" indicates few or no clouds below 12,000 feet with no
significant weather and/or obstructions to visibility.

WVZ003-112300-
Northern Panhandle of West Virginia

CITY           SKY/WX    TMP DP  RH WIND       PRES   REMARKS
WHEELING         N/A     18   0  45 W8        30.21R WCI   8
$$

WVZ009-112300-
Northwest West Virginia

CITY           SKY/WX    TMP DP  RH WIND       PRES   REMARKS
PARKERSBURG    MOCLDY    21   5  50 W8        30.29R
$$

WVZ006-112300-
Western West Virginia

CITY           SKY/WX    TMP DP  RH WIND       PRES   REMARKS
HUNTINGTON       N/A     27   5  39 N8        30.26R
$$

WVZ015-112300-
West Central West Virginia

CITY           SKY/WX    TMP DP  RH WIND       PRES   REMARKS
CHARLESTON     MOCLDY    25   5  42 VRB3      30.25R
$$

WVZ022-031-112300-
North Central West Virginia

CITY           SKY/WX    TMP DP  RH WIND       PRES   REMARKS
CLARKSBURG     CLOUDY    19   3  49 NW8       30.22R WCI   9
MORGANTOWN     CLOUDY    19   0  43 W12G18    30.21R WCI   7
$$

WVZ025-035-042-045-112300-
Southern West Virginia

CITY           SKY/WX    TMP DP  RH WIND       PRES   REMARKS
BECKLEY          N/A     20   4  50 NW8       30.11R
LOGAN            N/A     25   7  46 NW3       30.18R
BLUEFIELD        N/A     21   1  41 NW13      30.08R WCI   9
LEWISBURG        N/A     23   3  42 NW5       30.12R
$$

WVZ047-112300-
Northern Mountains of West Virginia

CITY           SKY/WX    TMP DP  RH WIND       PRES   REMARKS
ELKINS         CLOUDY    15   2  56 W9        30.16R WCI   3
$$

WVZ052-112300-
Eastern Panhandle of West Virginia

CITY           SKY/WX    TMP DP  RH WIND       PRES   REMARKS
MARTINSBURG    MOCLDY    22  -1  36 NW12      30.18R
PETERSBURG     MOCLDY    21   1  41 NW5G22    30.21R
$$



USA.gov is the U.S. government's official web portal to all federal, state and local government web resources and services.